Back to catalog

STARLINK-5695

AliveCommunicationsVLEO
NORAD 55485·PAYLOAD·🇺🇸 United States

Launched Feb 2, 2023 from Cape Canaveral Space Force Station

Loading…

Next Passes (next 24 hours)

TLE

FreshSource: CelesTrak SupGP

Epoch: Sep 14, 2026, 21:41 UTC

1 55485C 23015AN  26257.90395833 -.00046210  00000+0 -16735-2 0  2575
2 55485  43.0046 351.3865 0002215 279.9529 323.6206 15.27605030    12

Track STARLINK-5695 in real time with AllMySat

Download on the App Store